Location: *
(47.1032°S, 179.4144°W)
Time: 01:08:27
(UTC+00:00)

Daily predictions for brighter satellites

Satellite Brightness Start Highest point End
(mag) Time Altitude Azimuth Time Altitude Azimuth Time Altitude Azimuth
Cosmos 2263 4.5 04:37:20 10° NNW 04:42:59 76° WSW 04:48:46 10° SSE
USA 234 3.9 04:39:19 10° ESE 04:45:25 41° S 04:51:32 10° SW
Cosmos 2058 Rocket 3.4 04:41:50 10° SSW 04:46:26 78° W 04:50:56 10° N
CZ-2C R/B 3.8 04:44:28 10° S 04:49:19 41° WSW 04:54:03 10° NW
BREEZE-M DEB (TANK) 2.7 04:52:59 10° WSW 04:58:22 77° SSE 05:00:50 10° E
Cosmos 1174 3.9 04:57:42 10° SW 05:01:04 59° WNW 05:04:02 10° NNE
Cosmos 1745 Rocket 4.0 04:54:54 10° N 05:01:12 74° E 05:07:29 10° SSE
Cosmos 1626 Rocket 3.6 04:56:55 10° N 05:01:22 72° E 05:05:54 10° SSE
Cosmos 923 Rocket 4.1 04:58:08 10° SSW 05:03:33 84° ESE 05:08:54 10° NNE
YAOGAN 6 2.7 05:04:00 10° S 05:05:52 33° WSW 05:07:41 10° NW
Cosmos 1680 Rocket 3.5 05:00:39 10° SSW 05:06:01 67° ESE 05:11:17 10° NNE
H-2A R/B 4.2 05:02:16 10° SSW 05:06:04 22° WSW 05:09:53 10° WNW
BREEZE-M DEB (TANK) 3.6 05:04:55 10° NNW 05:08:07 22° NNE 05:09:58 11° E
NOSS 3-4 (A) 3.7 05:00:50 10° SW 05:08:12 86° NW 05:14:21 10° NE
NOSS 3-4 (C) 3.7 05:00:56 10° SW 05:08:17 87° NW 05:14:26 10° NE
SL-4 R/B 3.2 05:05:47 10° WSW 05:09:15 39° NW 05:12:52 10° NE
Nadezhda 1 Rocket 4.1 05:04:46 10° S 05:10:56 80° W 05:17:04 10° N
COSMO-SKYMED 1 2.5 05:07:00 10° NNE 05:11:13 90° WNW 05:15:31 10° SSW
ARIANE 5 R/B 3.7 05:07:20 10° SE 05:11:33 23° E 05:15:42 10° NE
SJ-11-01 4.4 05:09:00 10° SSE 05:13:50 87° WSW 05:18:34 10° NNW
Aureole 1 Rocket 4.3 05:07:17 10° NNW 05:13:51 64° WSW 05:19:11 10° SSE
Meteor 2-6 Rocket 4.4 05:07:55 10° S 05:13:56 64° ESE 05:19:46 10° NNE
SAR-Lupe-1 4.3 05:13:36 10° SSE 05:17:13 52° E 05:20:47 10° N
Okean 1 3.3 05:13:41 10° S 05:17:23 48° ESE 05:21:00 10° NNE
BlueWalker 3 4.2 05:16:38 10° NE 05:17:33 11° NE 05:18:28 10° ENE
NOAA 12 4.1 05:12:17 10° SSE 05:17:40 82° ENE 05:22:58 10° NNW
Cosmos 1709 Rocket 4.0 05:12:01 10° N 05:18:11 72° E 05:24:22 10° SSE
RESURS DK-1 4.2 05:28:32 10° S 05:30:04 13° SSE 05:30:04 13° SSE
Cosmos 1441 Rocket 4.0 05:28:45 10° NNW 05:32:06 47° WSW 05:35:30 10° S
Cosmos 1484 Rocket 2.9 05:29:31 10° S 05:33:12 71° WSW 05:36:50 10° NNW
Cosmos 1238 Rocket 2.6 05:32:23 10° S 05:36:33 66° E 05:40:07 10° NNE
ATLAS 5 CENTAUR R/B 4.0 05:31:02 10° W 05:37:18 30° SSW 05:42:56 11° SSE
ADEOS Rocket 4.5 05:31:38 10° S 05:38:13 41° WSW 05:44:09 10° NW
ATLAS 2AS CENTAUR R/B 4.1 05:32:47 10° SW 05:38:22 23° S 05:42:06 16° SE
Meteor 1-27 Rocket 4.2 05:35:05 10° S 05:40:29 37° ESE 05:45:43 10° NE
Cosmos 2369 Rocket 4.0 05:36:35 10° WNW 05:41:11 25° SW 05:45:49 10° S
Thor Agena Rocket 3.5 05:37:36 10° SSE 05:42:46 89° WSW 05:47:49 10° NNW
SL-08 R/B 4.2 05:38:56 10° ENE 05:42:46 26° ESE 05:46:40 10° S
USA 306 2.8 05:38:52 10° WSW 05:42:54 74° NW 05:46:40 11° NE
Cosmos 2297 Rocket 2.4 05:37:53 10° SSW 05:43:28 50° ESE 05:48:59 10° NE
Cosmos 1812 Rocket 3.8 05:39:30 10° SSW 05:43:55 72° W 05:48:13 10° N
Gbstr 26 Del rocket 2.8 05:40:48 10° NW 05:45:05 70° NNE 05:47:00 28° ESE
Cosmos 2181 Rocket 4.0 05:39:34 10° S 05:45:49 64° ESE 05:52:06 10° NNE
USA 267 3.6 05:47:38 21° ESE 05:52:00 50° NE 05:58:21 10° NNW
Lacrosse 5 rocket 1.4 05:49:49 10° NNW 05:53:03 42° NE 05:53:47 36° E
CBERS-1 4.2 05:48:48 10° SSE 05:53:59 74° WSW 05:59:05 10° NNW
Cosmos 2360 4.5 05:52:01 10° N 05:57:29 49° ENE 06:00:36 25° SE
Cosmos 1125 Rocket 4.3 05:53:04 10° NNE 05:57:30 29° E 05:58:13 28° E
SMAP 3.4 05:56:48 22° SE 05:59:33 45° E 06:04:02 10° N
Cosmos 2221 3.0 05:56:23 10° SSW 06:00:38 62° W 06:04:46 10° N
Cosmos 1818 3.6 05:56:19 10° SW 06:01:46 82° NW 06:07:10 10° NNE
IRS-P3 4.4 06:00:17 20° SE 06:03:49 46° E 06:08:56 10° N
Cosmos 1743 3.6 06:00:45 10° NNE 06:02:46 28° NE 06:02:46 28° NE
ACS3 Solar Sail 2.3 05:57:57 10° S 06:04:14 63° WSW 06:10:23 10° NNW
Cosmos 2151 3.1 06:01:51 10° NNW 06:05:59 70° WSW 06:10:09 10° S
UNHA 3 R/B 4.5 06:06:05 51° SSE 06:06:45 89° WNW 06:09:44 10° NNW
CZ-2D R/B 2.7 06:06:28 49° SE 06:07:12 70° ENE 06:10:32 10° N
Cosmos 1346 Rocket 4.5 06:04:44 10° NNE 06:05:58 18° NE 06:05:58 18° NE
CZ-4C R/B 3.0 06:00:01 10° NNW 06:08:49 77° NE 06:13:41 24° SE
BREEZE-M DEB (TANK) 2.1 06:09:17 10° W 06:11:35 57° S 06:11:59 52° SE
Cosmos 2227 Rocket 2.6 06:06:20 10° SSW 06:11:44 41° SE 06:13:12 34° E
MOS 1-B Rocket 4.5 06:06:27 10° S 06:12:01 56° WSW 06:17:39 10° NW
SL-12 R/B (Aux Motor) 4.0 06:08:42 10° W 06:12:25 75° NW 06:12:25 75° NW
Cosmos 1825 Rocket 3.7 06:09:16 10° NNW 06:13:44 76° W 06:18:05 11° S
Cosmos 1980 Rocket 4.2 06:11:02 10° NE 06:11:39 12° NE 06:11:39 12° NE
Iridium 4 Rocket 4.2 06:13:59 10° NNE 06:17:08 31° ENE 06:17:08 31° ENE
Cosmos 2263 Rocket 3.3 06:14:14 10° S 06:17:55 25° SSE 06:17:55 25° SSE
BREEZE-M DEB (TANK) 4.2 06:20:07 10° W 06:23:04 33° NNW 06:29:55 10° NE
Cosmos 1048 Rocket 4.0 06:17:59 10° SSW 06:23:15 82° WNW 06:28:24 10° NNE
Cosmos 2074 Rocket 3.9 06:17:20 10° N 06:23:38 77° E 06:30:01 10° SSE
Cosmos 1842 Rocket 3.4 06:20:24 10° S 06:24:47 63° ESE 06:29:05 10° NNE
Cosmos 468 4.4 06:19:34 10° SSW 06:24:52 69° ESE 06:29:13 15° NNE
IRS-1C 4.1 06:22:46 13° SSE 06:27:41 85° WSW 06:33:03 10° NNW
USA 234 3.2 06:24:34 32° ENE 06:27:53 71° SSE 06:34:31 10° SW
Cosmos 614 Rocket 4.4 06:26:58 10° SSW 06:31:16 44° SE 06:31:16 44° SE
Meteor 1-25 Rocket 4.2 06:27:19 10° N 06:33:11 87° E 06:38:18 15° SSE
Cosmos 2219 4.4 06:29:34 10° S 06:32:47 25° SSE 06:32:47 25° SSE
Cosmos 1697 Rocket 2.8 06:29:27 10° N 06:34:55 52° ENE 06:35:15 52° E
Cosmos 44 3.4 06:30:30 10° NNW 06:35:48 70° ENE 06:36:38 59° ESE
Cosmos 1900 4.2 06:30:56 10° NNW 06:35:55 68° ENE 06:36:19 65° E
Cosmos 1656 4.2 06:38:32 10° NW 06:43:53 54° WSW 06:46:45 27° S
CORIOLIS 4.4 06:45:16 20° S 06:49:10 71° WSW 06:54:36 10° NNW
ARIANE 5 R/B 3.2 06:46:27 14° S 06:50:52 54° WSW 06:55:59 10° NW
BlueWalker 3 3.5 06:50:56 10° NW 06:52:56 29° NW 06:52:56 29° NW
BREEZE-M DEB (TANK) 4.2 06:50:29 10° W 06:56:37 55° SW 06:56:37 55° SW
Cosmos 1339 Rocket 4.3 06:52:24 10° S 06:58:41 81° E 07:04:48 10° N
Meteor 2-4 Rocket 3.7 07:00:57 10° SSW 07:06:33 80° W 07:12:16 10° N
Cosmos 2154 Rocket 4.4 07:02:01 10° NNW 07:08:20 63° WSW 07:14:44 10° S
Nadezhda 3 Rocket 4.5 07:06:38 10° SSW 07:12:45 59° W 07:18:48 10° N
Cosmos 1867 4.0 07:13:40 10° NW 07:17:53 56° NW 07:17:53 56° NW
SL-08 R/B 4.4 07:15:52 10° N 07:20:13 41° W 07:24:42 10° SSW
ATLAS 5 CENTAUR R/B 4.3 07:17:47 10° SW 07:22:26 19° S 07:22:48 19° S
Cosmos 2297 Rocket 4.0 07:22:22 10° SW 07:27:13 29° WNW 07:32:01 10° NNW
Lacrosse 5 rocket 4.2 07:27:22 10° W 07:27:47 12° W 07:27:47 12° W
ATLAS 2AS CENTAUR R/B 3.6 07:24:17 10° SW 07:29:32 38° S 07:29:32 38° S
USA 267 3.4 07:34:59 65° SSW 07:35:08 65° SSW 07:41:39 10° WNW
ACS3 Solar Sail 4.5 07:43:25 10° SSW 07:46:18 13° SW 07:49:09 10° WSW
Cosmos 2227 Rocket 3.6 07:50:32 10° SW 07:55:05 36° W 07:55:05 36° W
CZ-4C R/B 3.8 07:50:10 10° WNW 07:57:49 39° SW 07:58:41 37° SSW
Cosmos 1980 Rocket 4.4 07:52:13 10° NNW 07:53:28 17° NNW 07:53:28 17° NNW
Cosmos 2263 Rocket 4.2 07:57:44 10° SSW 07:59:37 22° SW 07:59:37 22° SW
USA 234 4.2 08:11:56 42° WNW 08:11:56 42° WNW 08:17:25 10° WSW
